Find Starlink 30088

NORAD ID: 57462 Int'l Des: 2023-107 Owner: SPXS Country: US Constellation: starlink operational
LEOCIRCULAR

現在のビュー

3D地球を読み込み中...

About Starlink 30088

Starlink 30088 (NORAD 57462) is a starlink constellation satellite (v2 mini) launched Jul 28, 2023 by SPXS of US. It operates in LEO, CIRCULAR orbit with a mass of 730.00 kg.

Starlink 30088について

説明を読み込み中...

次回通過

Passes for default location (London). Set your location on the main map for personalized predictions.

高度履歴

Loading altitude history...

軌道要素

1 57462U 23107F 26175.07069700 -.00003739 00000-0 -12639-3 0 9995
2 57462 43.0019 95.5831 0001554 265.3503 94.7171 15.27585071161416
Epoch: Jun 24, 2026 • Age: 12 hours

現在のステータス

高度 492.7 km
速度 7.62 km/s
衛星直下点 -36.53°S, 153.74°W
打ち上げ日 Jul 28, 2023
運用期間 2.9 years
タイプ internet

技術仕様

分類 Payload
質量 730.00 kg
乾燥質量 700.00 kg
総質量 730.00 kg
長さ 0.30 m
直径 4.10 m
スパン 29.00 m
形状 Box + pan
製造者 SPXS
バスタイプ Starlink V2M
フェーズステータス In Orbit
所有者/国 SPXS/US

Most Searched